Weather History for Lyndonville, VT

Change the Weather History Date:

Monday, September 23, 2013

  Actual Average (K1V4) Record (K1V4)
Temperature  
Mean Temperature 44 °F 57 °F  
Max Temperature 47 °F 68 °F 90 °F (1914)
Min Temperature 42 °F 46 °F 22 °F (1904)
Degree Days  
Heating Degree Days 20 8  
Month to date heating degree days 114  
Since 1 July heating degree days 164  
Cooling Degree Days 0 0  
Month to date cooling degree days 33  
Year to date cooling degree days 431  
Moisture  
Dew Point 36 °F    
Average Humidity 71    
Maximum Humidity 81    
Minimum Humidity 65    
Precipitation  
Precipitation 0.00 in 0.14 in 1.54 in (1898)
Month to date precipitation 2.51  
Year to date precipitation 28.27  
Sea Level Pressure  
Sea Level Pressure 29.97 in    
Wind  
Wind Speed 8 mph (NW)    
Max Wind Speed 15 mph    
Max Gust Speed 23 mph    
Visibility 10 miles    
Events      
T = Trace of Precipitation, MM = Missing Value Source: NWS Daily Summary

Daily Weather History Graph

Daily Weather History Graph

Search for Another Location

Airport:

Trip Planner

Search our weather history database for the weather conditions in past years. The results will help you decide how hot, cold, wet, or windy it might be!

Date:

Astronomy

Sep. 23, 2013 Rise Set
Actual Time 6:36 AM EDT 6:43 PM EDT
Civil Twilight 6:07 AM EDT 7:12 PM EDT
Nautical Twilight 5:33 AM EDT 7:46 PM EDT
Astronomical Twilight 4:58 AM EDT 8:21 PM EDT
Moon 9:01 PM EDT (9/23) 11:04 AM EDT (9/23)
Length of Visible Light 13h 04m
Length of Day
12h 06m
Waning Gibbous, 81% of the Moon is Illuminated
Sep 23
Waning Gibbous
Sep 26
Last Quarter
Oct 4
New
Oct 11
First Quarter
Oct 18
Full

Hourly Weather History & Observations

Time (EDT) Temp. Windchill Dew Point Humidity Pressure Visibility Wind Dir Wind Speed Gust Speed Precip Events Conditions
12:15 AM 45.7 °F 42.7 °F 40.3 °F 81% 29.86 in 10.0 mi NW 5.8 mph - N/A   Overcast
12:35 AM 45.7 °F 44.4 °F 40.3 °F 81% 29.86 in 10.0 mi WNW 3.5 mph - N/A   Overcast
12:55 AM 45.5 °F 41.8 °F 39.6 °F 80% 29.86 in 10.0 mi NW 6.9 mph - N/A   Overcast
1:15 AM 45.1 °F 41.4 °F 39.2 °F 80% 29.87 in 10.0 mi WNW 6.9 mph - N/A   Overcast
1:35 AM 45.5 °F 41.3 °F 38.8 °F 78% 29.87 in 10.0 mi WNW 8.1 mph - N/A   Overcast
1:55 AM 44.8 °F 42.4 °F 37.8 °F 76% 29.88 in 10.0 mi NNW 4.6 mph - N/A   Overcast
2:15 AM 44.4 °F 41.2 °F 36.5 °F 74% 29.88 in 10.0 mi NNW 5.8 mph - N/A   Overcast
2:35 AM 44.1 °F 40.8 °F 37.2 °F 77% 29.89 in 10.0 mi NW 5.8 mph - N/A   Overcast
2:55 AM 43.5 °F 40.9 °F 36.3 °F 76% 29.89 in 10.0 mi NW 4.6 mph - N/A   Mostly Cloudy
3:15 AM 42.6 °F 37.8 °F 34.7 °F 74% 29.90 in 10.0 mi NW 8.1 mph - N/A   Scattered Clouds
3:35 AM 42.1 °F 37.7 °F 34.5 °F 75% 29.90 in 10.0 mi NW 6.9 mph - N/A   Scattered Clouds
3:55 AM 42.6 °F 40.9 °F 34.7 °F 74% 29.91 in 10.0 mi NW 3.5 mph - N/A   Mostly Cloudy
4:15 AM 42.8 °F 38.6 °F 34.7 °F 73% 29.90 in 10.0 mi NW 6.9 mph - N/A   Overcast
4:35 AM 42.8 °F 38.0 °F 34.9 °F 74% 29.90 in 10.0 mi NW 8.1 mph - N/A   Overcast
4:55 AM 42.6 °F 39.9 °F 34.7 °F 74% 29.91 in 10.0 mi NNW 4.6 mph - N/A   Overcast
5:15 AM 42.4 °F 38.8 °F 34.5 °F 74% 29.91 in 10.0 mi NNW 5.8 mph - N/A   Overcast
5:35 AM 42.6 °F 38.4 °F 34.7 °F 74% 29.91 in 10.0 mi NNW 6.9 mph - N/A   Overcast
5:55 AM 42.8 °F 40.1 °F 35.1 °F 74% 29.92 in 10.0 mi NW 4.6 mph - N/A   Overcast
6:15 AM 42.8 °F 40.1 °F 35.6 °F 76% 29.92 in 10.0 mi NW 4.6 mph - N/A   Overcast
6:35 AM 42.1 °F 39.2 °F 34.9 °F 76% 29.93 in 10.0 mi NNW 4.6 mph - N/A   Mostly Cloudy
6:55 AM 42.4 °F 36.5 °F 34.0 °F 72% 29.94 in 10.0 mi NW 10.4 mph - N/A   Mostly Cloudy
7:15 AM 42.4 °F 36.5 °F 34.2 °F 72% 29.95 in 10.0 mi NNW 10.4 mph - N/A   Overcast
7:35 AM 42.6 °F 36.8 °F 34.5 °F 73% 29.95 in 10.0 mi NW 10.4 mph - N/A   Overcast
7:55 AM 42.6 °F 37.8 °F 34.5 °F 73% 29.96 in 10.0 mi NNW 8.1 mph - N/A   Overcast
8:15 AM 42.8 °F 37.5 °F 34.2 °F 72% 29.96 in 10.0 mi NNW 9.2 mph 16.1 mph N/A   Overcast
8:35 AM 42.8 °F 36.2 °F 34.2 °F 72% 29.97 in 10.0 mi NW 12.7 mph 18.4 mph N/A   Overcast
8:55 AM 42.8 °F 36.2 °F 34.3 °F 72% 29.97 in 10.0 mi NW 12.7 mph - N/A   Overcast
9:15 AM 43.2 °F 38.4 °F 34.5 °F 72% 29.97 in 10.0 mi NW 8.1 mph 18.4 mph N/A   Overcast
9:35 AM 43.7 °F 39.1 °F 34.7 °F 71% 29.98 in 10.0 mi NW 8.1 mph - N/A   Overcast
9:55 AM 43.7 °F 39.1 °F 34.9 °F 71% 29.98 in 10.0 mi NW 8.1 mph 17.3 mph N/A   Overcast
10:15 AM 44.6 °F 39.2 °F 35.4 °F 70% 29.98 in 10.0 mi WNW 10.4 mph - N/A   Overcast
10:35 AM 44.2 °F 39.7 °F 35.4 °F 71% 29.98 in 10.0 mi WNW 8.1 mph - N/A   Overcast
10:55 AM 44.6 °F 39.7 °F 36.0 °F 72% 29.99 in 10.0 mi WNW 9.2 mph - N/A   Overcast
11:15 AM 44.8 °F 38.7 °F 35.4 °F 70% 29.99 in 10.0 mi WNW 12.7 mph 18.4 mph N/A   Overcast
11:35 AM 45.5 °F 40.3 °F 35.6 °F 68% 30.00 in 10.0 mi NW 10.4 mph - N/A   Overcast
11:55 AM 47.1 °F - 36.5 °F 67% 29.99 in 10.0 mi WNW 13.8 mph 18.4 mph N/A   Overcast
12:15 PM 46.6 °F - 35.8 °F 66% 30.00 in 10.0 mi NW 15.0 mph 18.4 mph N/A   Overcast
12:35 PM 47.5 °F - 37.0 °F 67% 30.00 in 10.0 mi WNW 9.2 mph - N/A   Overcast
12:55 PM 46.6 °F - 36.7 °F 68% 30.00 in 10.0 mi WNW 8.1 mph 16.1 mph N/A   Overcast
1:15 PM 47.5 °F - 36.7 °F 66% 30.00 in 10.0 mi WNW 13.8 mph 23.0 mph N/A   Overcast
1:35 PM 47.5 °F - 36.7 °F 66% 30.00 in 10.0 mi WNW 13.8 mph - N/A   Overcast
1:55 PM 46.9 °F - 36.5 °F 67% 30.01 in 10.0 mi WNW 11.5 mph 19.6 mph N/A   Overcast
2:15 PM 46.9 °F - 36.7 °F 68% 30.01 in 10.0 mi WNW 8.1 mph - N/A   Overcast
2:35 PM 47.5 °F - 36.9 °F 67% 30.00 in 10.0 mi WNW 8.1 mph - N/A   Overcast
2:55 PM 47.3 °F - 36.7 °F 67% 30.00 in 10.0 mi WNW 9.2 mph - N/A   Overcast
3:15 PM 47.3 °F - 36.0 °F 65% 30.00 in 10.0 mi NW 10.4 mph 16.1 mph N/A   Overcast
3:35 PM 47.3 °F - 36.5 °F 66% 30.00 in 10.0 mi NW 9.2 mph - N/A   Overcast
3:55 PM 47.3 °F - 36.7 °F 67% 30.00 in 10.0 mi WNW 15.0 mph 21.9 mph N/A   Overcast
4:15 PM 46.9 °F - 36.5 °F 67% 29.99 in 10.0 mi WNW 9.2 mph 16.1 mph N/A   Overcast
4:35 PM 47.3 °F - 37.0 °F 68% 30.00 in 10.0 mi WNW 9.2 mph - N/A   Overcast
4:55 PM 47.5 °F - 36.5 °F 66% 30.00 in 10.0 mi WNW 11.5 mph 17.3 mph N/A   Overcast
5:15 PM 47.5 °F - 36.5 °F 66% 30.00 in 10.0 mi WNW 12.7 mph - N/A   Overcast
5:35 PM 47.5 °F - 36.3 °F 65% 30.01 in 10.0 mi WNW 12.7 mph 17.3 mph N/A   Overcast
5:55 PM 46.8 °F - 36.5 °F 67% 30.01 in 10.0 mi WNW 10.4 mph 17.3 mph N/A   Overcast
6:15 PM 46.6 °F - 36.0 °F 67% 30.01 in 10.0 mi WNW 11.5 mph - N/A   Overcast
6:35 PM 46.4 °F 41.5 °F 36.5 °F 68% 30.01 in 10.0 mi WNW 10.4 mph 16.1 mph N/A   Overcast
6:55 PM 46.2 °F 41.7 °F 36.5 °F 69% 30.01 in 10.0 mi WNW 9.2 mph - N/A   Overcast
7:15 PM 45.7 °F 41.5 °F 36.7 °F 71% 30.01 in 10.0 mi WNW 8.1 mph - N/A   Overcast
7:35 PM 46.0 °F 41.9 °F 36.9 °F 70% 30.01 in 10.0 mi WNW 8.1 mph - N/A   Overcast
7:55 PM 46.0 °F 41.9 °F 37.0 °F 71% 30.01 in 10.0 mi NW 8.1 mph - N/A   Overcast
8:15 PM 46.4 °F 42.4 °F 37.4 °F 71% 30.01 in 10.0 mi NW 8.1 mph - N/A   Overcast
8:35 PM 46.4 °F 41.5 °F 37.6 °F 71% 30.01 in 10.0 mi WNW 10.4 mph - N/A   Overcast
8:55 PM 46.4 °F 41.9 °F 37.6 °F 71% 30.01 in 10.0 mi NW 9.2 mph - N/A   Overcast
9:15 PM 46.4 °F 42.9 °F 37.8 °F 72% 30.01 in 10.0 mi WNW 6.9 mph - N/A   Overcast
9:35 PM 46.4 °F 42.4 °F 37.4 °F 71% 30.01 in 10.0 mi WNW 8.1 mph - N/A   Overcast
9:55 PM 46.4 °F 41.5 °F 37.6 °F 71% 30.01 in 10.0 mi WNW 10.4 mph - N/A   Overcast
10:15 PM 46.6 °F - 37.2 °F 70% 30.02 in 10.0 mi WNW 9.2 mph 16.1 mph N/A   Overcast
10:35 PM 46.4 °F 41.5 °F 37.4 °F 71% 30.01 in 10.0 mi WNW 10.4 mph - N/A   Overcast
10:55 PM 46.6 °F - 37.4 °F 70% 30.01 in 10.0 mi NW 11.5 mph - N/A   Overcast
11:15 PM 46.4 °F 42.4 °F 37.6 °F 71% 30.01 in 10.0 mi WNW 8.1 mph 17.3 mph N/A   Overcast
11:35 PM 46.4 °F 42.4 °F 37.4 °F 71% 30.01 in 10.0 mi WNW 8.1 mph - N/A   Overcast
11:55 PM 46.0 °F 42.5 °F 37.4 °F 72% 30.01 in 10.0 mi WNW 6.9 mph - N/A   Overcast